Year,Month,Day,Hour,Minute,Value (Times are PST for temperature in C)
2015,03,07,00,00,4.80
2015,03,07,00,01,4.80
2015,03,07,00,02,4.80
2015,03,07,00,03,4.80
2015,03,07,00,04,4.80
2015,03,07,00,05,4.80
2015,03,07,00,06,4.70
2015,03,07,00,08,4.70
2015,03,07,00,09,4.70
2015,03,07,00,10,4.70
2015,03,07,00,11,4.70
2015,03,07,00,12,4.70
2015,03,07,00,13,4.70
2015,03,07,00,14,4.70
2015,03,07,00,15,4.70
2015,03,07,00,17,4.60
2015,03,07,00,19,4.60
2015,03,07,00,20,4.60
2015,03,07,00,21,4.60
2015,03,07,00,22,4.50
2015,03,07,00,23,4.50
2015,03,07,00,24,4.40
2015,03,07,00,25,4.40
2015,03,07,00,26,4.40
2015,03,07,00,27,4.40
2015,03,07,00,28,4.40
2015,03,07,00,29,4.30
2015,03,07,00,30,4.30
2015,03,07,00,31,4.30
2015,03,07,00,33,4.30
2015,03,07,00,34,4.30
2015,03,07,00,35,4.30
2015,03,07,00,36,4.30
2015,03,07,00,37,4.20
2015,03,07,00,38,4.20
2015,03,07,00,39,4.20
2015,03,07,00,40,4.20
2015,03,07,00,41,4.20
2015,03,07,00,42,4.20
2015,03,07,00,43,4.20
2015,03,07,00,44,4.20
2015,03,07,00,45,4.20
2015,03,07,00,46,4.20
2015,03,07,00,47,4.20
2015,03,07,00,48,4.20
2015,03,07,00,49,4.20
2015,03,07,00,50,4.10
2015,03,07,00,51,4.10
2015,03,07,00,52,4.10
2015,03,07,00,53,4.10
2015,03,07,00,54,4.10
2015,03,07,00,55,4.10
2015,03,07,00,56,4.10
2015,03,07,00,57,4.10
2015,03,07,00,58,4.10
2015,03,07,01,00,4.00
2015,03,07,01,02,4.00
2015,03,07,01,03,4.00
2015,03,07,01,04,4.00
2015,03,07,01,05,4.00
2015,03,07,01,06,4.00
2015,03,07,01,08,4.00
2015,03,07,01,09,4.00
2015,03,07,01,10,4.00
2015,03,07,01,11,4.00
2015,03,07,01,13,4.00
2015,03,07,01,14,4.00
2015,03,07,01,15,4.00
2015,03,07,01,16,4.00
2015,03,07,01,17,4.00
2015,03,07,01,18,4.00
2015,03,07,01,19,4.00
2015,03,07,01,20,4.00
2015,03,07,01,21,3.90
2015,03,07,01,22,4.00
2015,03,07,01,23,3.90
2015,03,07,01,24,3.90
2015,03,07,01,25,3.90
2015,03,07,01,26,3.90
2015,03,07,01,27,3.90
2015,03,07,01,28,3.90
2015,03,07,01,29,3.90
2015,03,07,01,30,3.90
2015,03,07,01,31,3.90
2015,03,07,01,32,3.90
2015,03,07,01,33,3.90
2015,03,07,01,34,3.90
2015,03,07,01,35,3.90
2015,03,07,01,36,3.90
2015,03,07,01,37,3.90
2015,03,07,01,38,3.90
2015,03,07,01,39,3.90
2015,03,07,01,40,3.90
2015,03,07,01,41,3.90
2015,03,07,01,42,3.90
2015,03,07,01,43,3.90
2015,03,07,01,44,3.90
2015,03,07,01,45,3.90
2015,03,07,01,46,3.90
2015,03,07,01,47,3.90
2015,03,07,01,48,3.90
2015,03,07,01,49,3.90
2015,03,07,01,50,3.80
2015,03,07,01,51,3.80
2015,03,07,01,52,3.90
2015,03,07,01,53,3.90
2015,03,07,01,54,3.80
2015,03,07,01,55,3.80
2015,03,07,01,56,3.80
2015,03,07,01,57,3.80
2015,03,07,01,58,3.80
2015,03,07,01,59,3.80
2015,03,07,02,01,3.80
2015,03,07,02,02,3.80
2015,03,07,02,03,3.80
2015,03,07,02,04,3.80
2015,03,07,02,05,3.80
2015,03,07,02,06,3.80
2015,03,07,02,07,3.80
2015,03,07,02,08,3.80
2015,03,07,02,09,3.80
2015,03,07,02,10,3.80
2015,03,07,02,11,3.80
2015,03,07,02,12,3.80
2015,03,07,02,13,3.80
2015,03,07,02,14,3.80
2015,03,07,02,15,3.80
2015,03,07,02,16,3.80
2015,03,07,02,17,3.80
2015,03,07,02,18,3.80
2015,03,07,02,19,3.80
2015,03,07,02,20,3.80
2015,03,07,02,21,3.80
2015,03,07,02,22,3.80
2015,03,07,02,23,3.80
2015,03,07,02,24,3.80
2015,03,07,02,25,3.80
2015,03,07,02,26,3.80
2015,03,07,02,27,3.80
2015,03,07,02,28,3.80
2015,03,07,02,29,3.80
2015,03,07,02,30,3.80
2015,03,07,02,31,3.80
2015,03,07,02,32,3.70
2015,03,07,02,33,3.70
2015,03,07,02,34,3.70
2015,03,07,02,35,3.70
2015,03,07,02,36,3.70
2015,03,07,02,37,3.70
2015,03,07,02,38,3.70
2015,03,07,02,39,3.70
2015,03,07,02,40,3.70
2015,03,07,02,41,3.70
2015,03,07,02,42,3.70
2015,03,07,02,43,3.70
2015,03,07,02,44,3.70
2015,03,07,02,45,3.70
2015,03,07,02,46,3.70
2015,03,07,02,47,3.70
2015,03,07,02,48,3.80
2015,03,07,02,49,3.80
2015,03,07,02,50,3.80
2015,03,07,02,51,3.80
2015,03,07,02,52,3.80
2015,03,07,02,53,3.80
2015,03,07,02,54,3.80
2015,03,07,02,55,3.80
2015,03,07,02,56,3.80
2015,03,07,02,57,3.80
2015,03,07,02,58,3.80
2015,03,07,02,59,3.80
2015,03,07,03,00,3.80
2015,03,07,03,01,3.80
2015,03,07,03,02,3.80
2015,03,07,03,03,3.80
2015,03,07,03,04,3.80
2015,03,07,03,05,3.80
2015,03,07,03,06,3.80
2015,03,07,03,07,3.80
2015,03,07,03,08,3.80
2015,03,07,03,09,3.80
2015,03,07,03,10,3.80
2015,03,07,03,11,3.80
2015,03,07,03,12,3.80
2015,03,07,03,13,3.80
2015,03,07,03,14,3.80
2015,03,07,03,15,3.80
2015,03,07,03,16,3.80
2015,03,07,03,17,3.80
2015,03,07,03,18,3.80
2015,03,07,03,19,3.80
2015,03,07,03,20,3.80
2015,03,07,03,21,3.80
2015,03,07,03,22,3.80
2015,03,07,03,23,3.80
2015,03,07,03,25,3.80
2015,03,07,03,26,3.80
2015,03,07,03,27,3.80
2015,03,07,03,28,3.80
2015,03,07,03,29,3.80
2015,03,07,03,30,3.80
2015,03,07,03,31,3.90
2015,03,07,03,32,3.80
2015,03,07,03,33,3.90
2015,03,07,03,34,3.90
2015,03,07,03,35,3.90
2015,03,07,03,37,3.90
2015,03,07,03,38,3.90
2015,03,07,03,39,3.90
2015,03,07,03,40,3.90
2015,03,07,03,41,3.90
2015,03,07,03,42,3.90
2015,03,07,03,43,3.90
2015,03,07,03,44,3.90
2015,03,07,03,45,3.90
2015,03,07,03,46,3.90
2015,03,07,03,47,3.90
2015,03,07,03,48,3.90
2015,03,07,03,49,3.90
2015,03,07,03,50,3.90
2015,03,07,03,51,3.90
2015,03,07,03,52,3.90
2015,03,07,03,53,3.90
2015,03,07,03,54,3.90
2015,03,07,03,55,3.90
2015,03,07,03,56,3.90
2015,03,07,03,57,3.90
2015,03,07,03,58,3.90
2015,03,07,03,59,3.80
2015,03,07,04,00,3.80
2015,03,07,04,01,3.80
2015,03,07,04,02,3.80
2015,03,07,04,03,3.80
2015,03,07,04,04,3.80
2015,03,07,04,05,3.80
2015,03,07,04,06,3.80
2015,03,07,04,07,3.80
2015,03,07,04,08,3.80
2015,03,07,04,09,3.70
2015,03,07,04,10,3.70
2015,03,07,04,11,3.70
2015,03,07,04,12,3.70
2015,03,07,04,13,3.70
2015,03,07,04,14,3.70
2015,03,07,04,15,3.70
2015,03,07,04,16,3.70
2015,03,07,04,17,3.70
2015,03,07,04,18,3.70
2015,03,07,04,19,3.70
2015,03,07,04,20,3.70
2015,03,07,04,21,3.70
2015,03,07,04,22,3.70
2015,03,07,04,23,3.70
2015,03,07,04,24,3.70
2015,03,07,04,25,3.70
2015,03,07,04,26,3.70
2015,03,07,04,27,3.70
2015,03,07,04,28,3.70
2015,03,07,04,29,3.70
2015,03,07,04,30,3.70
2015,03,07,04,31,3.70
2015,03,07,04,32,3.70
2015,03,07,04,33,3.70
2015,03,07,04,34,3.60
2015,03,07,04,35,3.60
2015,03,07,04,36,3.60
2015,03,07,04,37,3.60
2015,03,07,04,38,3.60
2015,03,07,04,39,3.60
2015,03,07,04,40,3.60
2015,03,07,04,41,3.60
2015,03,07,04,42,3.60
2015,03,07,04,43,3.60
2015,03,07,04,44,3.60
2015,03,07,04,45,3.60
2015,03,07,04,46,3.60
2015,03,07,04,47,3.60
2015,03,07,04,48,3.60
2015,03,07,04,49,3.60
2015,03,07,04,50,3.60
2015,03,07,04,51,3.60
2015,03,07,04,52,3.60
2015,03,07,04,53,3.60
2015,03,07,04,54,3.60
2015,03,07,04,55,3.60
2015,03,07,04,56,3.60
2015,03,07,04,57,3.60
2015,03,07,04,58,3.60
2015,03,07,04,59,3.60
2015,03,07,05,00,3.60
2015,03,07,05,01,3.60
2015,03,07,05,02,3.60
2015,03,07,05,03,3.60
2015,03,07,05,04,3.60
2015,03,07,05,05,3.60
2015,03,07,05,06,3.60
2015,03,07,05,07,3.60
2015,03,07,05,08,3.60
2015,03,07,05,09,3.60
2015,03,07,05,10,3.70
2015,03,07,05,11,3.70
2015,03,07,05,12,3.70
2015,03,07,05,13,3.70
2015,03,07,05,14,3.70
2015,03,07,05,15,3.70
2015,03,07,05,16,3.70
2015,03,07,05,17,3.70
2015,03,07,05,18,3.70
2015,03,07,05,19,3.70
2015,03,07,05,20,3.60
2015,03,07,05,21,3.60
2015,03,07,05,22,3.60
2015,03,07,05,23,3.60
2015,03,07,05,24,3.60
2015,03,07,05,25,3.60
2015,03,07,05,26,3.60
2015,03,07,05,27,3.60
2015,03,07,05,28,3.60
2015,03,07,05,29,3.60
2015,03,07,05,30,3.60
2015,03,07,05,32,3.60
2015,03,07,05,33,3.60
2015,03,07,05,34,3.60
2015,03,07,05,35,3.60
2015,03,07,05,36,3.60
2015,03,07,05,37,3.50
2015,03,07,05,38,3.50
2015,03,07,05,39,3.50
2015,03,07,05,40,3.50
2015,03,07,05,41,3.50
2015,03,07,05,42,3.50
2015,03,07,05,43,3.40
2015,03,07,05,44,3.40
2015,03,07,05,45,3.40
2015,03,07,05,46,3.40
2015,03,07,05,47,3.40
2015,03,07,05,48,3.40
2015,03,07,05,49,3.40
2015,03,07,05,51,3.30
2015,03,07,05,52,3.30
2015,03,07,05,53,3.30
2015,03,07,05,54,3.30
2015,03,07,05,55,3.30
2015,03,07,05,56,3.30
2015,03,07,05,57,3.30
2015,03,07,05,58,3.30
2015,03,07,05,59,3.30
2015,03,07,06,00,3.30
2015,03,07,06,01,3.30
2015,03,07,06,02,3.30
2015,03,07,06,03,3.30
2015,03,07,06,04,3.30
2015,03,07,06,05,3.20
2015,03,07,06,06,3.30
2015,03,07,06,07,3.20
2015,03,07,06,08,3.20
2015,03,07,06,09,3.20
2015,03,07,06,10,3.20
2015,03,07,06,11,3.20
2015,03,07,06,12,3.20
2015,03,07,06,13,3.20
2015,03,07,06,14,3.20
2015,03,07,06,15,3.20
2015,03,07,06,16,3.20
2015,03,07,06,17,3.20
2015,03,07,06,18,3.20
2015,03,07,06,19,3.20
2015,03,07,06,20,3.20
2015,03,07,06,21,3.20
2015,03,07,06,22,3.20
2015,03,07,06,23,3.20
2015,03,07,06,24,3.20
2015,03,07,06,25,3.20
2015,03,07,06,26,3.20
2015,03,07,06,27,3.10
2015,03,07,06,28,3.10
2015,03,07,06,29,3.10
2015,03,07,06,30,3.10
2015,03,07,06,31,3.10
2015,03,07,06,32,3.10
2015,03,07,06,33,3.10
2015,03,07,06,34,3.10
2015,03,07,06,35,3.10
2015,03,07,06,36,3.10
2015,03,07,06,37,3.10
2015,03,07,06,38,3.10
2015,03,07,06,39,3.10
2015,03,07,06,40,3.10
2015,03,07,06,41,3.10
2015,03,07,06,42,3.10
2015,03,07,06,43,3.10
2015,03,07,06,44,3.10
2015,03,07,06,45,3.10
2015,03,07,06,46,3.10
2015,03,07,06,47,3.10
2015,03,07,06,48,3.10
2015,03,07,06,49,3.10
2015,03,07,06,50,3.10
2015,03,07,06,52,3.10
2015,03,07,06,53,3.10
2015,03,07,06,54,3.10
2015,03,07,06,55,3.10
2015,03,07,06,56,3.10
2015,03,07,06,57,3.10
2015,03,07,06,58,3.10
2015,03,07,06,59,3.10
2015,03,07,07,00,3.10
2015,03,07,07,01,3.10
2015,03,07,07,02,3.10
2015,03,07,07,03,3.10
2015,03,07,07,04,3.10
2015,03,07,07,05,3.10
2015,03,07,07,06,3.10
2015,03,07,07,07,3.10
2015,03,07,07,08,3.10
2015,03,07,07,09,3.10
2015,03,07,07,10,3.10
2015,03,07,07,11,3.20
2015,03,07,07,12,3.20
2015,03,07,07,13,3.20
2015,03,07,07,14,3.20
2015,03,07,07,15,3.20
2015,03,07,07,16,3.20
2015,03,07,07,17,3.20
2015,03,07,07,18,3.20
2015,03,07,07,19,3.20
2015,03,07,07,20,3.20
2015,03,07,07,21,3.20
2015,03,07,07,22,3.30
2015,03,07,07,23,3.30
2015,03,07,07,24,3.30
2015,03,07,07,25,3.30
2015,03,07,07,26,3.30
2015,03,07,07,27,3.30
2015,03,07,07,28,3.30
2015,03,07,07,29,3.30
2015,03,07,07,31,3.30
2015,03,07,07,32,3.40
2015,03,07,07,33,3.40
2015,03,07,07,34,3.40
2015,03,07,07,35,3.40
2015,03,07,07,36,3.40
2015,03,07,07,37,3.40
2015,03,07,07,38,3.40
2015,03,07,07,39,3.40
2015,03,07,07,40,3.40
2015,03,07,07,41,3.40
2015,03,07,07,42,3.40
2015,03,07,07,43,3.40
2015,03,07,07,44,3.40
2015,03,07,07,45,3.40
2015,03,07,07,46,3.40
2015,03,07,07,47,3.40
2015,03,07,07,48,3.50
2015,03,07,07,49,3.50
2015,03,07,07,50,3.50
2015,03,07,07,51,3.60
2015,03,07,07,52,3.60
2015,03,07,07,53,3.60
2015,03,07,07,54,3.60
2015,03,07,07,55,3.60
2015,03,07,07,56,3.60
2015,03,07,07,57,3.60
2015,03,07,07,58,3.60
2015,03,07,07,59,3.60
2015,03,07,08,00,3.60
2015,03,07,08,01,3.60
2015,03,07,08,02,3.60
2015,03,07,08,03,3.60
2015,03,07,08,04,3.60
2015,03,07,08,05,3.60
2015,03,07,08,06,3.60
2015,03,07,08,07,3.60
2015,03,07,08,08,3.60
2015,03,07,08,09,3.70
2015,03,07,08,10,3.70
2015,03,07,08,11,3.70
2015,03,07,08,12,3.70
2015,03,07,08,14,3.70
2015,03,07,08,15,3.70
2015,03,07,08,16,3.70
2015,03,07,08,17,3.70
2015,03,07,08,18,3.80
2015,03,07,08,19,3.80
2015,03,07,08,21,3.80
2015,03,07,08,22,3.80
2015,03,07,08,23,3.80
2015,03,07,08,25,3.80
2015,03,07,08,26,3.80
2015,03,07,08,27,3.80
2015,03,07,08,28,3.80
2015,03,07,08,29,3.80
2015,03,07,08,30,3.80
2015,03,07,08,31,3.90
2015,03,07,08,32,3.90
2015,03,07,08,33,3.90
2015,03,07,08,34,3.90
2015,03,07,08,35,3.90
2015,03,07,08,36,3.90
2015,03,07,08,37,3.90
2015,03,07,08,38,3.90
2015,03,07,08,39,3.90
2015,03,07,08,40,3.90
2015,03,07,08,41,3.90
2015,03,07,08,42,3.90
2015,03,07,08,43,3.90
2015,03,07,08,44,4.00
2015,03,07,08,45,4.00
2015,03,07,08,46,4.00
2015,03,07,08,47,4.00
2015,03,07,08,48,4.00
2015,03,07,08,49,4.00
2015,03,07,08,50,4.00
2015,03,07,08,51,4.00
2015,03,07,08,52,4.10
2015,03,07,08,53,4.10
2015,03,07,08,54,4.10
2015,03,07,08,55,4.10
2015,03,07,08,56,4.10
2015,03,07,08,57,4.10
2015,03,07,08,58,4.10
2015,03,07,08,59,4.10
2015,03,07,09,00,4.10
2015,03,07,09,01,4.10
2015,03,07,09,02,4.10
2015,03,07,09,03,4.10
2015,03,07,09,04,4.20
2015,03,07,09,05,4.20
2015,03,07,09,06,4.20
2015,03,07,09,07,4.20
2015,03,07,09,08,4.20
2015,03,07,09,09,4.20
2015,03,07,09,10,4.20
2015,03,07,09,11,4.20
2015,03,07,09,12,4.20
2015,03,07,09,13,4.20
2015,03,07,09,14,4.20
2015,03,07,09,15,4.20
2015,03,07,09,16,4.20
2015,03,07,09,17,4.20
2015,03,07,09,18,4.20
2015,03,07,09,19,4.30
2015,03,07,09,20,4.30
2015,03,07,09,21,4.30
2015,03,07,09,22,4.30
2015,03,07,09,23,4.30
2015,03,07,09,24,4.30
2015,03,07,09,25,4.30
2015,03,07,09,26,4.30
2015,03,07,09,27,4.30
2015,03,07,09,28,4.30
2015,03,07,09,29,4.40
2015,03,07,09,30,4.40
2015,03,07,09,31,4.40
2015,03,07,09,32,4.40
2015,03,07,09,33,4.40
2015,03,07,09,34,4.40
2015,03,07,09,35,4.40
2015,03,07,09,36,4.40
2015,03,07,09,37,4.40
2015,03,07,09,38,4.40
2015,03,07,09,39,4.40
2015,03,07,09,40,4.40
2015,03,07,09,41,4.40
2015,03,07,09,42,4.40
2015,03,07,09,43,4.40
2015,03,07,09,44,4.40
2015,03,07,09,45,4.40
2015,03,07,09,46,4.50
2015,03,07,09,47,4.60
2015,03,07,09,48,4.60
2015,03,07,09,49,4.60
2015,03,07,09,50,4.70
2015,03,07,09,51,4.70
2015,03,07,09,52,4.80
2015,03,07,09,53,4.80
2015,03,07,09,54,4.80
2015,03,07,09,55,4.80
2015,03,07,09,56,4.90
2015,03,07,09,57,4.90
2015,03,07,09,58,4.90
2015,03,07,09,59,4.80
2015,03,07,10,00,4.80
2015,03,07,10,01,4.80
2015,03,07,10,02,4.80
2015,03,07,10,03,4.80
2015,03,07,10,04,4.80
2015,03,07,10,05,4.80
2015,03,07,10,06,4.90
2015,03,07,10,07,4.90
2015,03,07,10,08,4.80
2015,03,07,10,09,4.80
2015,03,07,10,10,4.80
2015,03,07,10,11,4.80
2015,03,07,10,12,4.80
2015,03,07,10,13,4.80
2015,03,07,10,14,4.80
2015,03,07,10,15,4.80
2015,03,07,10,16,4.80
2015,03,07,10,17,4.80
2015,03,07,10,18,4.80
2015,03,07,10,19,4.90
2015,03,07,10,20,4.90
2015,03,07,10,21,4.90
2015,03,07,10,22,4.90
2015,03,07,10,23,5.00
2015,03,07,10,24,5.10
2015,03,07,10,25,5.10
2015,03,07,10,26,5.20
2015,03,07,10,27,5.20
2015,03,07,10,29,5.30
2015,03,07,10,30,5.30
2015,03,07,10,31,5.30
2015,03,07,10,32,5.30
2015,03,07,10,33,5.30
2015,03,07,10,34,5.30
2015,03,07,10,35,5.30
2015,03,07,10,36,5.30
2015,03,07,10,37,5.30
2015,03,07,10,38,5.30
2015,03,07,10,39,5.30
2015,03,07,10,40,5.30
2015,03,07,10,41,5.30
2015,03,07,10,42,5.30
2015,03,07,10,43,5.30
2015,03,07,10,44,5.30
2015,03,07,10,45,5.30
2015,03,07,10,46,5.30
2015,03,07,10,47,5.30
2015,03,07,10,48,5.30
2015,03,07,10,49,5.40
2015,03,07,10,50,5.40
2015,03,07,10,51,5.50
2015,03,07,10,52,5.60
2015,03,07,10,53,5.60
2015,03,07,10,54,5.60
2015,03,07,10,55,5.60
2015,03,07,10,56,5.60
2015,03,07,10,57,5.60
2015,03,07,10,58,5.70
2015,03,07,10,59,5.70
2015,03,07,11,00,5.70
2015,03,07,11,01,5.80
2015,03,07,11,02,5.80
2015,03,07,11,03,5.90
2015,03,07,11,04,5.90
2015,03,07,11,05,5.90
2015,03,07,11,06,5.90
2015,03,07,11,07,6.00
2015,03,07,11,08,6.10
2015,03,07,11,10,6.10
2015,03,07,11,11,6.10
2015,03,07,11,12,6.10
2015,03,07,11,13,6.10
2015,03,07,11,14,6.20
2015,03,07,11,15,6.20
2015,03,07,11,16,6.20
2015,03,07,11,17,6.30
2015,03,07,11,18,6.30
2015,03,07,11,19,6.40
2015,03,07,11,20,6.60
2015,03,07,11,21,6.60
2015,03,07,11,22,6.70
2015,03,07,11,23,6.80
2015,03,07,11,24,6.90
2015,03,07,11,25,6.90
2015,03,07,11,26,6.90
2015,03,07,11,27,7.10
2015,03,07,11,28,7.10
2015,03,07,11,29,7.20
2015,03,07,11,30,7.20
2015,03,07,11,31,7.30
2015,03,07,11,32,7.30
2015,03,07,11,33,7.30
2015,03,07,11,34,7.40
2015,03,07,11,35,7.50
2015,03,07,11,36,7.60
2015,03,07,11,37,7.60
2015,03,07,11,38,7.60
2015,03,07,11,39,7.60
2015,03,07,11,40,7.70
2015,03,07,11,41,7.70
2015,03,07,11,42,7.70
2015,03,07,11,43,7.80
2015,03,07,11,44,7.90
2015,03,07,11,45,7.90
2015,03,07,11,46,8.10
2015,03,07,11,47,8.10
2015,03,07,11,48,8.10
2015,03,07,11,49,8.20
2015,03,07,11,50,8.30
2015,03,07,11,51,8.30
2015,03,07,11,52,8.30
2015,03,07,11,53,8.40
2015,03,07,11,54,8.50
2015,03,07,11,55,8.60
2015,03,07,11,56,8.60
2015,03,07,11,57,8.60
2015,03,07,11,58,8.70
2015,03,07,11,59,8.70
2015,03,07,12,00,8.80
2015,03,07,12,01,8.80
2015,03,07,12,03,9.10
2015,03,07,12,04,9.20
2015,03,07,12,05,9.30
2015,03,07,12,06,9.40
2015,03,07,12,07,9.50
2015,03,07,12,08,9.60
2015,03,07,12,09,9.70
2015,03,07,12,10,9.70
2015,03,07,12,11,9.80
2015,03,07,12,12,9.80
2015,03,07,12,13,9.90
2015,03,07,12,14,9.90
2015,03,07,12,15,9.90
2015,03,07,12,16,10.00
2015,03,07,12,17,10.10
2015,03,07,12,18,10.10
2015,03,07,12,19,10.10
2015,03,07,12,20,10.20
2015,03,07,12,21,10.20
2015,03,07,12,22,10.20
2015,03,07,12,23,10.30
2015,03,07,12,24,10.30
2015,03,07,12,25,10.40
2015,03,07,12,26,10.40
2015,03,07,12,27,10.40
2015,03,07,12,28,10.40
2015,03,07,12,29,10.50
2015,03,07,12,30,10.50
2015,03,07,12,31,10.50
2015,03,07,12,32,10.60
2015,03,07,12,33,10.70
2015,03,07,12,34,10.70
2015,03,07,12,35,10.80
2015,03,07,12,36,10.80
2015,03,07,12,37,10.90
2015,03,07,12,38,11.00
2015,03,07,12,40,11.10
2015,03,07,12,41,11.20
2015,03,07,12,42,11.30
2015,03,07,12,43,11.40
2015,03,07,12,44,11.50
2015,03,07,12,45,11.60
2015,03,07,12,46,11.70
2015,03,07,12,47,11.80
2015,03,07,12,48,11.80
2015,03,07,12,49,11.90
2015,03,07,12,50,12.00
2015,03,07,12,51,12.00
2015,03,07,12,52,12.10
2015,03,07,12,53,12.20
2015,03,07,12,54,12.20
2015,03,07,12,55,12.30
2015,03,07,12,56,12.30
2015,03,07,12,57,12.40
2015,03,07,12,58,12.60
2015,03,07,12,59,12.60
2015,03,07,13,00,12.60
2015,03,07,13,01,12.70
2015,03,07,13,03,12.80
2015,03,07,13,04,12.80
2015,03,07,13,05,12.90
2015,03,07,13,06,13.00
2015,03,07,13,07,13.00
2015,03,07,13,08,13.10
2015,03,07,13,09,13.20
2015,03,07,13,10,13.30
2015,03,07,13,11,13.40
2015,03,07,13,12,13.50
2015,03,07,13,13,13.60
2015,03,07,13,14,13.70
2015,03,07,13,15,13.80
2015,03,07,13,16,13.80
2015,03,07,13,17,13.90
2015,03,07,13,18,13.90
2015,03,07,13,19,13.90
2015,03,07,13,20,13.90
2015,03,07,13,21,14.00
2015,03,07,13,22,14.10
2015,03,07,13,23,14.10
2015,03,07,13,24,14.10
2015,03,07,13,25,14.10
2015,03,07,13,26,14.10
2015,03,07,13,27,14.10
2015,03,07,13,28,14.10
2015,03,07,13,29,14.20
2015,03,07,13,30,14.20
2015,03,07,13,31,14.20
2015,03,07,13,32,14.30
2015,03,07,13,33,14.30
2015,03,07,13,34,14.30
2015,03,07,13,35,14.30
2015,03,07,13,36,14.30
2015,03,07,13,37,14.40
2015,03,07,13,38,14.50
2015,03,07,13,39,14.60
2015,03,07,13,40,14.60
2015,03,07,13,41,14.50
2015,03,07,13,42,14.50
2015,03,07,13,43,14.50
2015,03,07,13,44,14.50
2015,03,07,13,45,14.60
2015,03,07,13,46,14.60
2015,03,07,13,47,14.70
2015,03,07,13,48,14.70
2015,03,07,13,49,14.70
2015,03,07,13,50,14.80
2015,03,07,13,51,14.70
2015,03,07,13,52,14.70
2015,03,07,13,53,14.70
2015,03,07,13,54,14.70
2015,03,07,13,55,14.70
2015,03,07,13,56,14.70
2015,03,07,13,57,14.70
2015,03,07,13,58,14.70
2015,03,07,13,59,14.80
2015,03,07,14,00,14.80
2015,03,07,14,01,14.80
2015,03,07,14,02,14.80
2015,03,07,14,03,14.80
2015,03,07,14,04,14.90
2015,03,07,14,05,15.00
2015,03,07,14,06,15.00
2015,03,07,14,07,15.00
2015,03,07,14,08,15.00
2015,03,07,14,09,15.00
2015,03,07,14,10,15.00
2015,03,07,14,11,15.00
2015,03,07,14,12,15.00
2015,03,07,14,13,15.00
2015,03,07,14,14,15.10
2015,03,07,14,15,15.10
2015,03,07,14,16,15.20
2015,03,07,14,17,15.20
2015,03,07,14,18,15.20
2015,03,07,14,19,15.30
2015,03,07,14,20,15.30
2015,03,07,14,21,15.30
2015,03,07,14,22,15.30
2015,03,07,14,23,15.40
2015,03,07,14,24,15.50
2015,03,07,14,26,15.60
2015,03,07,14,27,15.60
2015,03,07,14,28,15.60
2015,03,07,14,29,15.60
2015,03,07,14,30,15.70
2015,03,07,14,31,15.70
2015,03,07,14,32,15.80
2015,03,07,14,33,15.80
2015,03,07,14,34,15.90
2015,03,07,14,35,16.10
2015,03,07,14,36,16.10
2015,03,07,14,37,16.20
2015,03,07,14,38,16.30
2015,03,07,14,39,16.30
2015,03,07,14,40,16.30
2015,03,07,14,41,16.30
2015,03,07,14,42,16.30
2015,03,07,14,43,16.30
2015,03,07,14,44,16.30
2015,03,07,14,45,16.40
2015,03,07,14,46,16.40
2015,03,07,14,47,16.50
2015,03,07,14,48,16.50
2015,03,07,14,49,16.80
2015,03,07,14,50,16.80
2015,03,07,14,51,16.90
2015,03,07,14,52,17.00
2015,03,07,14,53,17.10
2015,03,07,14,54,17.20
2015,03,07,14,55,17.30
2015,03,07,14,56,17.30
2015,03,07,14,57,17.40
2015,03,07,14,58,17.40
2015,03,07,14,59,17.40
2015,03,07,15,00,17.30
2015,03,07,15,01,17.30
2015,03,07,15,02,17.30
2015,03,07,15,03,17.20
2015,03,07,15,04,17.20
2015,03,07,15,05,17.20
2015,03,07,15,06,17.20
2015,03,07,15,07,17.20
2015,03,07,15,08,17.10
2015,03,07,15,09,17.10
2015,03,07,15,10,17.10
2015,03,07,15,11,17.10
2015,03,07,15,12,17.10
2015,03,07,15,13,17.10
2015,03,07,15,14,17.10
2015,03,07,15,15,17.20
2015,03,07,15,16,17.20
2015,03,07,15,17,17.20
2015,03,07,15,18,17.30
2015,03,07,15,19,17.30
2015,03,07,15,20,17.30
2015,03,07,15,21,17.20
2015,03,07,15,22,17.20
2015,03,07,15,24,17.20
2015,03,07,15,25,17.20
2015,03,07,15,26,17.20
2015,03,07,15,27,17.20
2015,03,07,15,28,17.30
2015,03,07,15,29,17.30
2015,03,07,15,30,17.20
2015,03,07,15,31,17.20
2015,03,07,15,32,17.20
2015,03,07,15,33,17.10
2015,03,07,15,34,17.00
2015,03,07,15,35,16.90
2015,03,07,15,36,16.80
2015,03,07,15,37,16.80
2015,03,07,15,38,16.70
2015,03,07,15,39,16.70
2015,03,07,15,40,16.70
2015,03,07,15,41,16.70
2015,03,07,15,42,16.70
2015,03,07,15,43,16.70
2015,03,07,15,44,16.80
2015,03,07,15,45,16.80
2015,03,07,15,46,16.80
2015,03,07,15,47,16.90
2015,03,07,15,48,16.90
2015,03,07,15,49,17.00
2015,03,07,15,50,17.10
2015,03,07,15,51,17.20
2015,03,07,15,52,17.20
2015,03,07,15,53,17.30
2015,03,07,15,54,17.30
2015,03,07,15,55,17.40
2015,03,07,15,56,17.40
2015,03,07,15,57,17.40
2015,03,07,15,58,17.50
2015,03,07,15,59,17.50
2015,03,07,16,00,17.60
2015,03,07,16,01,17.60
2015,03,07,16,02,17.70
2015,03,07,16,03,17.70
2015,03,07,16,04,17.70
2015,03,07,16,05,17.70
2015,03,07,16,06,17.80
2015,03,07,16,07,17.80
2015,03,07,16,09,17.80
2015,03,07,16,11,17.80
2015,03,07,16,12,17.80
2015,03,07,16,13,17.80
2015,03,07,16,14,17.90
2015,03,07,16,15,17.90
2015,03,07,16,16,17.90
2015,03,07,16,17,17.90
2015,03,07,16,18,17.90
2015,03,07,16,19,17.90
2015,03,07,16,20,17.90
2015,03,07,16,21,17.90
2015,03,07,16,22,17.90
2015,03,07,16,23,17.80
2015,03,07,16,24,17.80
2015,03,07,16,25,17.80
2015,03,07,16,26,17.70
2015,03,07,16,27,17.70
2015,03,07,16,28,17.70
2015,03,07,16,29,17.70
2015,03,07,16,30,17.70
2015,03,07,16,31,17.60
2015,03,07,16,32,17.60
2015,03,07,16,33,17.50
2015,03,07,16,34,17.50
2015,03,07,16,35,17.40
2015,03,07,16,36,17.40
2015,03,07,16,37,17.40
2015,03,07,16,38,17.40
2015,03,07,16,39,17.30
2015,03,07,16,40,17.30
2015,03,07,16,41,17.20
2015,03,07,16,42,17.20
2015,03,07,16,43,17.20
2015,03,07,16,44,17.10
2015,03,07,16,45,17.00
2015,03,07,16,46,16.90
2015,03,07,16,47,16.80
2015,03,07,16,48,16.80
2015,03,07,16,49,16.70
2015,03,07,16,50,16.70
2015,03,07,16,51,16.60
2015,03,07,16,52,16.60
2015,03,07,16,53,16.50
2015,03,07,16,54,16.50
2015,03,07,16,55,16.50
2015,03,07,16,56,16.40
2015,03,07,16,57,16.40
2015,03,07,16,58,16.40
2015,03,07,16,59,16.40
2015,03,07,17,00,16.40
2015,03,07,17,01,16.40
2015,03,07,17,03,16.40
2015,03,07,17,04,16.30
2015,03,07,17,05,16.30
2015,03,07,17,06,16.30
2015,03,07,17,07,16.30
2015,03,07,17,08,16.30
2015,03,07,17,09,16.30
2015,03,07,17,10,16.30
2015,03,07,17,11,16.20
2015,03,07,17,12,16.20
2015,03,07,17,13,16.10
2015,03,07,17,14,16.10
2015,03,07,17,15,16.00
2015,03,07,17,16,15.90
2015,03,07,17,17,15.90
2015,03,07,17,18,15.90
2015,03,07,17,19,15.80
2015,03,07,17,21,15.80
2015,03,07,17,22,15.80
2015,03,07,17,23,15.70
2015,03,07,17,24,15.70
2015,03,07,17,25,15.70
2015,03,07,17,26,15.70
2015,03,07,17,27,15.70
2015,03,07,17,28,15.70
2015,03,07,17,29,15.60
2015,03,07,17,30,15.60
2015,03,07,17,31,15.60
2015,03,07,17,32,15.50
2015,03,07,17,33,15.50
2015,03,07,17,34,15.40
2015,03,07,17,35,15.40
2015,03,07,17,36,15.40
2015,03,07,17,37,15.40
2015,03,07,17,38,15.30
2015,03,07,17,39,15.30
2015,03,07,17,40,15.20
2015,03,07,17,41,15.20
2015,03,07,17,42,15.20
2015,03,07,17,43,15.10
2015,03,07,17,44,15.10
2015,03,07,17,45,15.10
2015,03,07,17,46,15.00
2015,03,07,17,47,14.90
2015,03,07,17,48,14.90
2015,03,07,17,49,14.80
2015,03,07,17,50,14.80
2015,03,07,17,51,14.70
2015,03,07,17,52,14.70
2015,03,07,17,53,14.60
2015,03,07,17,54,14.60
2015,03,07,17,55,14.50
2015,03,07,17,56,14.40
2015,03,07,17,57,14.40
2015,03,07,17,58,14.30
2015,03,07,17,59,14.30
2015,03,07,18,00,14.20
2015,03,07,18,01,14.20
2015,03,07,18,03,14.10
2015,03,07,18,04,14.10
2015,03,07,18,05,14.00
2015,03,07,18,07,13.90
2015,03,07,18,08,13.80
2015,03,07,18,09,13.80
2015,03,07,18,10,13.80
2015,03,07,18,11,13.70
2015,03,07,18,12,13.70
2015,03,07,18,13,13.60
2015,03,07,18,14,13.60
2015,03,07,18,15,13.60
2015,03,07,18,16,13.60
2015,03,07,18,17,13.50
2015,03,07,18,18,13.50
2015,03,07,18,19,13.40
2015,03,07,18,20,13.40
2015,03,07,18,21,13.40